Grand Princess — ZCBU5 — position and weather

sailwx.info

Track history (hours):
 
Tides and Currents Weather Stations Pressure Air Temp Water Temp Dewpoint Dewpoint Depression Visibility Wind Speed Wind Dir Waves Ship Positions

Grand Princess

Operator: Princess Cruises

Last reported at 2020-Jan-28 17:00 UTC. Time now 2020-Jan-28 18:58 UTC.
Position N 35°18' W 127°24'.

Length 289.5 m; beam 36 m; draft 8.5 m.

Type: Passenger vessel. MMSI: 310327000.

Wind from 290 at 20 knots

Barometer 1029.8 mb
Air temperature 15.0 ° C
Visibility: greater than 10.8 NM
Dewpoint 13.2 ° C
Water temperature 15.0 ° C

Date/timePositionNaut miles runAvg speedWind from/ knotsBaromVisibWave heightAir tempDewpointWater temp
2020-Jan-28 17:00N 35°18' W 127°24'1111.5 290 / 201029.810.8 15.013.215.0
2020-Jan-28 16:00N 35°24' W 127°12'1918.9 290 / 231030.310.8 15.013.215.0
2020-Jan-28 15:00N 35°36' W 126°54'21218.3 290 / 231030.310.8 15.013.215.0
2020-Jan-28 03:24N 37°29' W 123°10'4112.2
2020-Jan-28 00:00N 37°48' W 122°24'0 0.0
2020-Jan-27 22:00N 37°48' W 122°24'0 0.0
2020-Jan-27 18:00N 37°48' W 122°24'0 0.0
2020-Jan-27 17:00N 37°48' W 122°24'0 0.0
2020-Jan-27 16:30N 37°48' W 122°24'0 0.0
2020-Jan-27 15:30N 37°48' W 122°24'16 5.2
2020-Jan-27 12:30N 37°39' W 122°40'611.7
2020-Jan-27 12:00N 37°33' W 122°40'612.2
2020-Jan-27 11:30N 37°27' W 122°40'33614.3
2020-Jan-26 12:00N 32°26' W 119°37'1614.7
2020-Jan-26 10:55N 32°17' W 119°21'1415.5
2020-Jan-26 10:00N 32°11' W 119°06'815.3
2020-Jan-26 09:31N 32°08' W 118°58'6215.4
2020-Jan-26 05:30N 31°50' W 117°49'42 2.6
2020-Jan-25 13:30N 31°41' W 117°01'1110.7
2020-Jan-25 12:30N 31°49' W 117°09'611.5
2020-Jan-25 12:00N 31°54' W 117°13'611.5
2020-Jan-25 11:30N 31°59' W 117°16'31 8.9
2020-Jan-25 08:00N 32°29' W 117°21'510.7
2020-Jan-25 07:30N 32°34' W 117°17'11 2.8
2020-Jan-25 03:30N 32°43' W 117°10'0 0.0
2020-Jan-25 01:01N 32°43' W 117°10'0 0.0
2020-Jan-25 00:28N 32°43' W 117°10'0 0.0
2020-Jan-24 23:01N 32°43' W 117°10'0 0.0
2020-Jan-24 20:31N 32°43' W 117°10'0 0.0
2020-Jan-24 19:55N 32°43' W 117°10'0 0.0
2020-Jan-24 19:31N 32°43' W 117°10'0 0.0
2020-Jan-24 16:00N 32°43' W 117°10'4 3.6
2020-Jan-24 15:00N 32°41' W 117°14'1010.4
2020-Jan-24 14:00N 32°32' W 117°20'2412.2
2020-Jan-24 12:00N 32°22' W 117°47'1212.1
2020-Jan-24 11:01N 32°21' W 118°01'611.7
2020-Jan-24 10:30N 32°20' W 118°08'611.9
2020-Jan-24 10:01N 32°19' W 118°15'4317.2
2020-Jan-24 07:30N 32°13' W 119°05'816.7
2020-Jan-24 07:01N 32°14' W 119°15'4913.9
2020-Jan-24 03:30N 32°43' W 120°02'1413.1
2020-Jan-24 02:26N 32°53' W 120°13'2512.9
2020-Jan-24 00:28N 33°12' W 120°33'1712.7
2020-Jan-23 23:06N 33°27' W 120°45'1413.1
2020-Jan-23 22:00N 33°38' W 120°55'24215.1
2020-Jan-23 06:00N 37°24' W 122°44'917.2
2020-Jan-23 05:30N 37°32' W 122°44'22 2.1
2020-Jan-22 18:58N 37°48' W 122°24'0 0.0
2020-Jan-22 14:58N 37°48' W 122°24'13 6.8
2020-Jan-22 13:00N 37°44' W 122°40'  
Track history (hours):
 
Tides and Currents Weather Stations Pressure Air Temp Water Temp Dewpoint Dewpoint Depression Visibility Wind Speed Wind Dir Waves Ship Positions

Grand Princess

Operator: Princess Cruises

Last reported at 2020-Jan-28 17:00 UTC. Time now 2020-Jan-28 18:58 UTC.
Position N 35°18' W 127°24'.

Length 289.5 m; beam 36 m; draft 8.5 m.

Type: Passenger vessel. MMSI: 310327000.

Wind from 290 at 20 knots

Barometer 1029.8 mb
Air temperature 15.0 ° C
Visibility: greater than 10.8 NM
Dewpoint 13.2 ° C
Water temperature 15.0 ° C

Date/timePositionNaut miles runAvg speedWind from/ knotsBaromVisibWave heightAir tempDewpointWater temp
2020-Jan-28 17:00N 35°18' W 127°24'1111.5 290 / 201029.810.8 15.013.215.0
2020-Jan-28 16:00N 35°24' W 127°12'1918.9 290 / 231030.310.8 15.013.215.0
2020-Jan-28 15:00N 35°36' W 126°54'21218.3 290 / 231030.310.8 15.013.215.0
2020-Jan-28 03:24N 37°29' W 123°10'4112.2
2020-Jan-28 00:00N 37°48' W 122°24'0 0.0
2020-Jan-27 22:00N 37°48' W 122°24'0 0.0
2020-Jan-27 18:00N 37°48' W 122°24'0 0.0
2020-Jan-27 17:00N 37°48' W 122°24'0 0.0
2020-Jan-27 16:30N 37°48' W 122°24'0 0.0
2020-Jan-27 15:30N 37°48' W 122°24'16 5.2
2020-Jan-27 12:30N 37°39' W 122°40'611.7
2020-Jan-27 12:00N 37°33' W 122°40'612.2
2020-Jan-27 11:30N 37°27' W 122°40'33614.3
2020-Jan-26 12:00N 32°26' W 119°37'1614.7
2020-Jan-26 10:55N 32°17' W 119°21'1415.5
2020-Jan-26 10:00N 32°11' W 119°06'815.3
2020-Jan-26 09:31N 32°08' W 118°58'6215.4
2020-Jan-26 05:30N 31°50' W 117°49'42 2.6
2020-Jan-25 13:30N 31°41' W 117°01'1110.7
2020-Jan-25 12:30N 31°49' W 117°09'611.5
2020-Jan-25 12:00N 31°54' W 117°13'611.5
2020-Jan-25 11:30N 31°59' W 117°16'31 8.9
2020-Jan-25 08:00N 32°29' W 117°21'510.7
2020-Jan-25 07:30N 32°34' W 117°17'11 2.8
2020-Jan-25 03:30N 32°43' W 117°10'0 0.0
2020-Jan-25 01:01N 32°43' W 117°10'0 0.0
2020-Jan-25 00:28N 32°43' W 117°10'0 0.0
2020-Jan-24 23:01N 32°43' W 117°10'0 0.0
2020-Jan-24 20:31N 32°43' W 117°10'0 0.0
2020-Jan-24 19:55N 32°43' W 117°10'0 0.0
2020-Jan-24 19:31N 32°43' W 117°10'0 0.0
2020-Jan-24 16:00N 32°43' W 117°10'4 3.6
2020-Jan-24 15:00N 32°41' W 117°14'1010.4
2020-Jan-24 14:00N 32°32' W 117°20'2412.2
2020-Jan-24 12:00N 32°22' W 117°47'1212.1
2020-Jan-24 11:01N 32°21' W 118°01'611.7
2020-Jan-24 10:30N 32°20' W 118°08'611.9
2020-Jan-24 10:01N 32°19' W 118°15'4317.2
2020-Jan-24 07:30N 32°13' W 119°05'816.7
2020-Jan-24 07:01N 32°14' W 119°15'4913.9
2020-Jan-24 03:30N 32°43' W 120°02'1413.1
2020-Jan-24 02:26N 32°53' W 120°13'2512.9
2020-Jan-24 00:28N 33°12' W 120°33'1712.7
2020-Jan-23 23:06N 33°27' W 120°45'1413.1
2020-Jan-23 22:00N 33°38' W 120°55'24215.1
2020-Jan-23 06:00N 37°24' W 122°44'917.2
2020-Jan-23 05:30N 37°32' W 122°44'22 2.1
2020-Jan-22 18:58N 37°48' W 122°24'0 0.0
2020-Jan-22 14:58N 37°48' W 122°24'13 6.8
2020-Jan-22 13:00N 37°44' W 122°40'  

Dump ship's entire track history